Time,TemperatureF,DewpointF,PressureIn,WindDirection,WindDirectionDegrees,WindSpeedMPH,WindSpeedGustMPH,Humidity,HourlyPrecipIn,Conditions,Clouds,dailyrainin,SoftwareType,DateUTC
2013-04-11 00:10:00,61.3,59.0,29.89,ENE,63,0.0,2.0,92,0.00,,,0.00,weatherlink.com 1.10,2013-04-11 04:10:00,
2013-04-11 00:25:00,61.3,59.0,29.91,NNW,332,1.0,2.0,93,0.00,,,0.00,weatherlink.com 1.10,2013-04-11 04:25:00,
2013-04-11 00:40:00,62.0,59.0,29.91,West,259,0.0,2.0,91,0.00,,,0.00,weatherlink.com 1.10,2013-04-11 04:40:00,
2013-04-11 00:55:00,62.1,60.0,29.90,West,259,0.0,1.0,91,0.00,,,0.00,weatherlink.com 1.10,2013-04-11 04:55:00,
2013-04-11 01:10:00,61.4,59.0,29.87,West,259,0.0,0.0,92,0.00,,,0.00,weatherlink.com 1.10,2013-04-11 05:10:00,
2013-04-11 01:25:00,61.1,59.0,29.85,West,259,0.0,0.0,93,0.00,,,0.00,weatherlink.com 1.10,2013-04-11 05:25:00,
2013-04-11 01:40:00,61.0,59.0,29.83,West,259,0.0,0.0,93,0.00,,,0.00,weatherlink.com 1.10,2013-04-11 05:40:00,
2013-04-11 01:55:00,60.6,59.0,29.82,West,259,0.0,0.0,93,0.00,,,0.00,weatherlink.com 1.10,2013-04-11 05:55:00,
2013-04-11 02:10:00,60.3,58.0,29.81,South,173,0.0,2.0,92,0.00,,,0.00,weatherlink.com 1.10,2013-04-11 06:10:00,
2013-04-11 02:25:00,60.2,58.0,29.81,SSW,192,0.0,3.0,92,0.00,,,0.00,weatherlink.com 1.10,2013-04-11 06:25:00,
2013-04-11 02:40:00,59.9,58.0,29.82,SSW,205,0.0,1.0,92,0.00,,,0.00,weatherlink.com 1.10,2013-04-11 06:40:00,
2013-04-11 02:55:00,59.6,58.0,29.81,SSW,205,0.0,0.0,93,0.00,,,0.00,weatherlink.com 1.10,2013-04-11 06:55:00,
2013-04-11 03:10:00,59.8,58.0,29.82,SSW,205,0.0,0.0,93,0.00,,,0.00,weatherlink.com 1.10,2013-04-11 07:10:00,
2013-04-11 03:25:00,60.0,58.0,29.82,SSW,205,0.0,0.0,92,0.00,,,0.00,weatherlink.com 1.10,2013-04-11 07:25:00,
2013-04-11 03:40:00,59.9,57.0,29.82,SSW,205,0.0,0.0,91,0.00,,,0.00,weatherlink.com 1.10,2013-04-11 07:40:00,
2013-04-11 03:55:00,59.7,57.0,29.84,SSW,205,0.0,0.0,92,0.00,,,0.00,weatherlink.com 1.10,2013-04-11 07:55:00,
2013-04-11 04:10:00,59.4,57.0,29.85,SSW,205,0.0,0.0,92,0.00,,,0.00,weatherlink.com 1.10,2013-04-11 08:10:00,
2013-04-11 04:25:00,59.3,57.0,29.85,SSW,205,0.0,0.0,92,0.00,,,0.00,weatherlink.com 1.10,2013-04-11 08:25:00,
2013-04-11 04:40:00,59.2,57.0,29.85,SSW,205,0.0,0.0,92,0.00,,,0.00,weatherlink.com 1.10,2013-04-11 08:40:00,
2013-04-11 04:55:00,59.1,57.0,29.86,SSW,205,0.0,0.0,91,0.00,,,0.00,weatherlink.com 1.10,2013-04-11 08:55:00,
2013-04-11 05:10:00,58.5,57.0,29.87,SSW,205,0.0,1.0,93,0.00,,,0.00,weatherlink.com 1.10,2013-04-11 09:10:00,
2013-04-11 05:25:00,58.8,57.0,29.87,SSW,205,0.0,1.0,92,0.00,,,0.00,weatherlink.com 1.10,2013-04-11 09:25:00,
2013-04-11 05:40:00,59.5,57.0,29.87,SW,217,0.0,2.0,90,0.00,,,0.00,weatherlink.com 1.10,2013-04-11 09:40:00,
2013-04-11 05:55:00,58.4,56.0,29.88,SW,217,0.0,0.0,92,0.00,,,0.00,weatherlink.com 1.10,2013-04-11 09:55:00,
2013-04-11 06:10:00,58.6,56.0,29.88,SW,217,0.0,0.0,92,0.00,,,0.00,weatherlink.com 1.10,2013-04-11 10:10:00,
2013-04-11 06:25:00,58.3,56.0,29.87,SW,217,0.0,0.0,92,0.00,,,0.00,weatherlink.com 1.10,2013-04-11 10:25:00,
2013-04-11 06:40:00,57.3,55.0,29.87,SW,217,0.0,0.0,93,0.00,,,0.00,weatherlink.com 1.10,2013-04-11 10:40:00,
2013-04-11 06:56:00,57.3,56.0,29.88,SW,217,0.0,0.0,94,0.00,,,0.00,weatherlink.com 1.10,2013-04-11 10:56:00,
2013-04-11 07:11:00,58.1,56.0,29.88,SW,217,0.0,0.0,94,0.00,,,0.00,weatherlink.com 1.10,2013-04-11 11:11:00,
2013-04-11 07:26:00,58.8,57.0,29.88,SW,217,0.0,1.0,92,0.00,,,0.00,weatherlink.com 1.10,2013-04-11 11:26:00,
2013-04-11 07:41:00,59.6,57.0,29.88,SW,217,0.0,1.0,92,0.00,,,0.00,weatherlink.com 1.10,2013-04-11 11:41:00,
2013-04-11 07:56:00,60.5,58.0,29.87,SW,217,0.0,0.0,91,0.00,,,0.00,weatherlink.com 1.10,2013-04-11 11:56:00,
2013-04-11 08:41:00,64.0,60.0,29.87,South,189,0.0,1.0,85,0.00,,,0.00,weatherlink.com 1.10,2013-04-11 12:41:00,
2013-04-11 08:56:00,65.3,60.0,29.87,South,188,0.0,3.0,83,0.00,,,0.00,weatherlink.com 1.10,2013-04-11 12:56:00,
2013-04-11 09:41:00,68.1,60.0,29.88,South,186,0.0,1.0,76,0.00,,,0.00,weatherlink.com 1.10,2013-04-11 13:41:00,
2013-04-11 09:56:00,69.1,61.0,29.88,South,188,0.0,2.0,74,0.00,,,0.00,weatherlink.com 1.10,2013-04-11 13:56:00,
2013-04-11 10:26:00,71.3,60.0,29.89,SE,134,0.0,2.0,67,0.00,,,0.00,weatherlink.com 1.10,2013-04-11 14:26:00,
2013-04-11 10:56:00,72.2,58.0,29.89,South,188,0.0,3.0,61,0.00,,,0.00,weatherlink.com 1.10,2013-04-11 14:56:00,
2013-04-11 11:11:00,74.0,59.0,29.89,South,184,0.0,5.0,60,0.00,,,0.00,weatherlink.com 1.10,2013-04-11 15:11:00,
2013-04-11 11:27:00,73.9,58.0,29.89,East,90,2.0,3.0,57,0.00,,,0.00,weatherlink.com 1.10,2013-04-11 15:27:00,
2013-04-11 11:41:00,73.1,58.0,29.89,WNW,286,0.0,7.0,60,0.00,,,0.00,weatherlink.com 1.10,2013-04-11 15:41:00,
2013-04-11 12:11:00,77.0,60.0,29.88,WSW,250,1.0,6.0,55,0.00,,,0.00,weatherlink.com 1.10,2013-04-11 16:11:00,
2013-04-11 12:27:00,74.2,60.0,29.87,East,92,6.0,10.0,62,0.00,,,0.00,weatherlink.com 1.10,2013-04-11 16:27:00,
2013-04-11 12:42:00,76.0,61.0,29.86,NNE,30,1.0,9.0,61,0.00,,,0.00,weatherlink.com 1.10,2013-04-11 16:42:00,
2013-04-11 12:57:00,74.7,62.0,29.86,NE,52,1.0,10.0,65,0.00,,,0.00,weatherlink.com 1.10,2013-04-11 16:57:00,
2013-04-11 13:12:00,75.4,62.0,29.85,NE,41,6.0,10.0,64,0.00,,,0.00,weatherlink.com 1.10,2013-04-11 17:12:00,
2013-04-11 13:27:00,77.9,63.0,29.84,ENE,61,4.0,8.0,60,0.00,,,0.00,weatherlink.com 1.10,2013-04-11 17:27:00,
2013-04-11 13:42:00,77.0,62.0,29.84,ESE,109,2.0,9.0,60,0.00,,,0.00,weatherlink.com 1.10,2013-04-11 17:42:00,
2013-04-11 13:57:00,76.4,62.0,29.83,NE,54,5.0,9.0,62,0.00,,,0.00,weatherlink.com 1.10,2013-04-11 17:57:00,
2013-04-11 14:12:00,75.7,63.0,29.82,ENE,60,5.0,11.0,64,0.00,,,0.00,weatherlink.com 1.10,2013-04-11 18:12:00,
2013-04-11 14:27:00,76.4,63.0,29.82,NE,49,0.0,11.0,63,0.00,,,0.00,weatherlink.com 1.10,2013-04-11 18:27:00,
2013-04-11 14:42:00,75.7,63.0,29.82,ENE,64,1.0,11.0,64,0.00,,,0.00,weatherlink.com 1.10,2013-04-11 18:42:00,
2013-04-11 14:57:00,75.5,63.0,29.81,ENE,60,7.0,9.0,65,0.00,,,0.00,weatherlink.com 1.10,2013-04-11 18:57:00,
2013-04-11 15:12:00,75.1,63.0,29.81,ENE,77,8.0,12.0,66,0.00,,,0.00,weatherlink.com 1.10,2013-04-11 19:12:00,
2013-04-11 15:27:00,74.1,62.0,29.82,East,88,7.0,15.0,67,0.00,,,0.00,weatherlink.com 1.10,2013-04-11 19:27:00,
2013-04-11 15:42:00,72.7,62.0,29.81,ENE,59,11.0,11.0,69,0.00,,,0.00,weatherlink.com 1.10,2013-04-11 19:42:00,
2013-04-11 15:57:00,71.9,62.0,29.81,ENE,63,8.0,15.0,70,0.00,,,0.00,weatherlink.com 1.10,2013-04-11 19:57:00,
2013-04-11 16:12:00,70.9,60.0,29.81,East,82,13.0,18.0,69,0.00,,,0.00,weatherlink.com 1.10,2013-04-11 20:12:00,
2013-04-11 16:27:00,70.0,60.0,29.81,SSE,148,2.0,14.0,71,0.00,,,0.00,weatherlink.com 1.10,2013-04-11 20:27:00,
2013-04-11 16:42:00,68.2,59.0,29.82,NE,40,6.0,19.0,72,0.00,,,0.00,weatherlink.com 1.10,2013-04-11 20:42:00,
2013-04-11 16:57:00,67.0,58.0,29.82,ENE,63,7.0,15.0,73,0.00,,,0.00,weatherlink.com 1.10,2013-04-11 20:57:00,
2013-04-11 17:12:00,66.2,57.0,29.82,East,99,10.0,16.0,73,0.00,,,0.00,weatherlink.com 1.10,2013-04-11 21:12:00,
2013-04-11 17:27:00,65.0,57.0,29.82,East,84,3.0,16.0,74,0.00,,,0.00,weatherlink.com 1.10,2013-04-11 21:27:00,
2013-04-11 17:42:00,64.9,56.0,29.82,East,96,8.0,14.0,73,0.00,,,0.00,weatherlink.com 1.10,2013-04-11 21:42:00,
2013-04-11 17:57:00,65.2,56.0,29.82,ENE,57,12.0,16.0,73,0.00,,,0.00,weatherlink.com 1.10,2013-04-11 21:57:00,
2013-04-11 18:12:00,66.5,57.0,29.82,East,98,6.0,11.0,72,0.00,,,0.00,weatherlink.com 1.10,2013-04-11 22:12:00,
2013-04-11 18:27:00,65.8,57.0,29.83,East,90,6.0,14.0,73,0.00,,,0.00,weatherlink.com 1.10,2013-04-11 22:27:00,
2013-04-11 18:42:00,64.5,56.0,29.84,West,259,3.0,13.0,74,0.00,,,0.00,weatherlink.com 1.10,2013-04-11 22:42:00,
2013-04-11 18:57:00,63.4,55.0,29.84,ESE,113,3.0,10.0,75,0.00,,,0.00,weatherlink.com 1.10,2013-04-11 22:57:00,
2013-04-11 19:12:00,61.9,55.0,29.84,NW,326,2.0,12.0,77,0.00,,,0.00,weatherlink.com 1.10,2013-04-11 23:12:00,
2013-04-11 19:27:00,60.8,54.0,29.85,SSE,156,8.0,18.0,78,0.00,,,0.00,weatherlink.com 1.10,2013-04-11 23:27:00,
2013-04-11 19:42:00,60.1,53.0,29.85,NE,52,5.0,8.0,78,0.00,,,0.00,weatherlink.com 1.10,2013-04-11 23:42:00,
2013-04-11 19:57:00,59.7,52.0,29.85,SW,216,4.0,14.0,77,0.00,,,0.00,weatherlink.com 1.10,2013-04-11 23:57:00,
2013-04-11 20:12:00,58.4,51.0,29.86,West,272,1.0,10.0,77,0.00,,,0.00,weatherlink.com 1.10,2013-04-12 00:12:00,
2013-04-11 20:27:00,56.9,50.0,29.87,West,273,4.0,10.0,78,0.00,,,0.00,weatherlink.com 1.10,2013-04-12 00:27:00,
2013-04-11 20:42:00,55.7,49.0,29.88,ESE,102,3.0,12.0,79,0.00,,,0.00,weatherlink.com 1.10,2013-04-12 00:42:00,
2013-04-11 20:57:00,55.2,49.0,29.88,North,9,3.0,9.0,79,0.00,,,0.00,weatherlink.com 1.10,2013-04-12 00:57:00,
2013-04-11 21:12:00,54.7,48.0,29.89,WSW,243,1.0,13.0,78,0.00,,,0.00,weatherlink.com 1.10,2013-04-12 01:12:00,
2013-04-11 21:27:00,54.2,47.0,29.88,SE,142,0.0,13.0,78,0.00,,,0.00,weatherlink.com 1.10,2013-04-12 01:27:00,
2013-04-11 21:42:00,54.0,47.0,29.89,SE,128,1.0,7.0,78,0.00,,,0.00,weatherlink.com 1.10,2013-04-12 01:42:00,
2013-04-11 21:57:00,53.8,47.0,29.89,NW,319,3.0,7.0,78,0.00,,,0.00,weatherlink.com 1.10,2013-04-12 01:57:00,
2013-04-11 22:12:00,53.7,47.0,29.90,East,80,2.0,5.0,78,0.00,,,0.00,weatherlink.com 1.10,2013-04-12 02:12:00,
2013-04-11 22:27:00,53.6,47.0,29.90,NNW,346,2.0,7.0,78,0.00,,,0.00,weatherlink.com 1.10,2013-04-12 02:27:00,
2013-04-11 22:42:00,53.0,46.0,29.89,East,95,9.0,15.0,78,0.00,,,0.00,weatherlink.com 1.10,2013-04-12 02:42:00,
2013-04-11 22:57:00,52.9,46.0,29.89,ESE,106,1.0,14.0,78,0.00,,,0.00,weatherlink.com 1.10,2013-04-12 02:57:00,
2013-04-11 23:12:00,52.7,46.0,29.89,WSW,247,6.0,9.0,79,0.00,,,0.00,weatherlink.com 1.10,2013-04-12 03:12:00,
2013-04-11 23:27:00,52.6,47.0,29.89,East,92,3.0,11.0,80,0.00,,,0.00,weatherlink.com 1.10,2013-04-12 03:27:00,
2013-04-11 23:42:00,52.3,46.0,29.89,East,94,2.0,9.0,79,0.00,,,0.00,weatherlink.com 1.10,2013-04-12 03:42:00,
2013-04-11 23:57:00,51.8,46.0,29.88,SE,127,5.0,11.0,81,0.00,,,0.00,weatherlink.com 1.10,2013-04-12 03:57:00,